EW0724 Weather Reports


Display with metric or nautical units.
time (UTC)temp
F
wind
direction
speed
MPH
gust
MPH
rain 1hr
in
rain 24hr
in
rain mn
in
humidity
%
barometer
mb
20260905234515 84 53 1.0 5.0 0.00 0.00 0.00 58 1010.3
20260905233010 85 342 1.0 6.0 0.00 0.00 0.00 60 1010.0
20260905231557 86 304 1.0 5.0 0.00 0.00 0.00 62 1009.9
20260905230050 86 88 2.0 9.0 0.00 0.00 0.00 62 1009.9
20260905224605 87 257 2.0 6.0 0.00 0.00 0.00 62 1009.7
20260905223042 88 156 0.0 5.0 0.00 0.00 0.00 62 1009.8
20260905221540 88 22 2.0 7.0 0.00 0.00 0.00 62 1009.5
20260905220033 88 312 1.0 7.0 0.00 0.00 0.00 62 1009.3
20260905214528 89 295 1.0 7.0 0.00 0.00 0.00 62 1009.3
20260905213033 89 251 1.0 5.0 0.00 0.00 0.00 61 1008.9
20260905211502 89 347 1.0 7.0 0.00 0.00 0.00 59 1009.0
20260905210059 88 332 2.0 5.0 0.00 0.00 0.00 58 1009.2
20260905204543 88 17 2.0 6.0 0.00 0.00 0.00 55 1009.2
20260905203040 88 21 2.0 6.0 0.00 0.00 0.00 54 1009.3
20260905201534 89 53 2.0 5.0 0.00 0.00 0.00 57 1009.5
20260905200032 89 56 2.0 5.0 0.00 0.00 0.00 58 1009.5
20260905194525 90 346 2.0 7.0 0.00 0.00 0.00 60 1009.5
20260905193021 90 243 1.0 6.0 0.00 0.00 0.00 61 1009.6
20260905191516 90 292 2.0 6.0 0.00 0.00 0.00 61 1009.6
20260905190013 90 292 0.0 2.0 0.00 0.00 0.00 60 1009.9
20260905184606 90 181 2.0 6.0 0.00 0.00 0.00 62 1010.1
20260905183047 90 227 0.0 7.0 0.00 0.00 0.00 61 1010.1
20260905181529 89 179 2.0 7.0 0.00 0.00 0.00 62 1010.2
20260905180025 89 227 4.0 8.0 0.00 0.00 0.00 62 1010.4
20260905174531 89 219 2.0 6.0 0.00 0.00 0.00 62 1010.5
20260905173026 88 224 5.0 10.0 0.00 0.00 0.00 62 1010.7
20260905171512 87 232 2.0 7.0 0.00 0.00 0.00 61 1010.9
20260905170008 87 162 3.0 11.0 0.00 0.00 0.00 61 1011.2
20260905164503 87 215 3.0 9.0 0.00 0.00 0.00 61 1011.2
20260905163102 86 148 4.0 11.0 0.00 0.00 0.00 61 1011.2
20260905161542 85 163 2.0 8.0 0.00 0.00 0.00 61 1011.3
20260905160038 85 164 1.0 5.0 0.00 0.00 0.00 60 1011.4
20260905154533 83 144 1.0 5.0 0.00 0.00 0.00 57 1011.4
20260905153029 82 188 1.0 4.0 0.00 0.00 0.00 56 1011.4
20260905151524 82 165 1.0 6.0 0.00 0.00 0.00 56 1011.4
20260905150020 81 173 1.0 8.0 0.00 0.00 0.00 50 1011.4
20260905144516 80 196 2.0 6.0 0.00 0.00 0.00 48 1011.7
20260905143011 80 165 1.0 8.0 0.00 0.00 0.00 46 1011.7
20260905141618 79 167 1.0 5.0 0.00 0.00 0.00 43 1011.4
20260905140053 78 193 0.0 6.0 0.00 0.00 0.00 37 1011.2
20260905134546 77 219 2.0 6.0 0.00 0.00 0.00 31 1011.2
20260905133042 76 74 1.0 5.0 0.00 0.00 0.00 19 1011.1
20260905131553 76 184 2.0 7.0 0.00 0.00 0.00 14 1011.1
20260905130036 75 206 1.0 4.0 0.00 0.00 0.00 16 1011.1
20260905124539 75 115 1.0 4.0 0.00 0.00 0.00 11 1011.3
20260905123025 74 193 0.0 4.0 0.00 0.00 0.00 4 1011.3
20260905121529 73 55 1.0 4.0 0.00 0.00 0.00 2 1011.2
20260905120100 0 0.0 0.0 0.00 0.00 0.00 1011.2
20260905114555 0 0.0 0.0 0.00 0.00 0.00 1011.3
20260905113041 0 0.0 0.0 0.00 0.00 0.00 1011.2
20260905111546 0 0.0 0.0 0.00 0.00 0.00 1011.0
20260905110030 0 0.0 0.0 0.00 0.00 0.00 1010.9
20260905104526 0 0.0 0.0 0.00 0.00 0.00 1010.6
20260905103030 0 0.0 0.0 0.00 0.00 0.00 1010.5
20260905101526 0 0.0 0.0 0.00 0.00 0.00 1010.5
20260905100014 0 0.0 0.0 0.00 0.00 0.00 1010.5
20260905094509 0 0.0 0.0 0.00 0.00 0.00 1010.3
20260905093047 78 198 0.0 2.0 0.00 0.00 0.00 100 1010.2
20260905091546 78 198 0.0 1.0 0.00 0.00 0.00 100 1010.1
20260905090026 78 198 0.0 1.0 0.00 0.00 0.00 100 1010.1
20260905084546 79 198 0.0 0.0 0.00 0.00 0.00 100 1010.0
20260905083001 79 198 0.0 2.0 0.00 0.00 0.00 100 1010.1
20260905081559 79 198 0.0 2.0 0.00 0.00 0.00 100 1009.9
20260905080052 79 198 0.0 0.0 0.00 0.00 0.00 100 1009.9
20260905074552 79 198 0.0 0.0 0.00 0.00 0.00 100 1010.1
20260905073044 79 198 0.0 0.0 0.00 0.00 0.00 100 1010.2
20260905071540 79 198 0.0 3.0 0.00 0.00 0.00 100 1009.8
20260905070035 79 198 0.0 1.0 0.00 0.00 0.00 100 1009.6
20260905064532 79 195 0.0 1.0 0.00 0.00 0.00 100 1009.2
20260905063015 79 194 0.0 2.0 0.00 0.00 0.00 100 1009.6
20260905061513 80 194 0.0 2.0 0.00 0.00 0.00 100 1009.7
20260905060006 80 194 0.0 3.0 0.00 0.00 0.00 100 1009.8
20260905054502 80 186 0.0 2.0 0.00 0.00 0.00 100 1010.2
20260905053111 81 186 0.0 1.0 0.00 0.00 0.00 100 1010.3
20260905051555 81 186 0.0 3.0 0.00 0.00 0.00 100 1010.3
20260905050048 81 178 1.0 3.0 0.00 0.00 0.00 100 1010.3
20260905044545 81 140 0.0 0.0 0.00 0.00 0.00 100 1010.4
20260905043029 82 140 0.0 1.0 0.00 0.00 0.00 100 1010.6
20260905041525 82 139 0.0 0.0 0.00 0.00 0.00 100 1010.7
20260905040022 82 139 0.0 0.0 0.00 0.00 0.00 100 1010.8
20260905034525 83 139 0.0 0.0 0.00 0.00 0.00 100 1010.9
20260905033012 83 139 0.0 0.0 0.00 0.00 0.00 100 1010.9
20260905031507 83 139 0.0 0.0 0.00 0.00 0.00 100 1011.0
20260905030008 84 139 0.0 0.0 0.00 0.00 0.00 100 1011.0
20260905024637 84 139 0.0 0.0 0.00 0.00 0.00 100 1010.8
20260905023042 85 139 0.0 1.0 0.00 0.00 0.00 100 1010.8
20260905021536 85 139 0.0 2.0 0.00 0.00 0.00 3 1010.6
20260905020016 85 139 0.0 0.0 0.00 0.00 0.00 4 1010.5
20260905014512 86 139 0.0 1.0 0.00 0.00 0.00 12 1010.5
20260905013007 87 139 0.0 1.0 0.00 0.00 0.00 20 1010.4
20260905011503 87 139 0.0 0.0 0.00 0.00 0.00 26 1010.2
20260905010103 88 139 0.0 1.0 0.00 0.00 0.00 31 1010.2
20260905004600 89 139 0.0 1.0 0.00 0.00 0.00 37 1010.0
20260905003050 89 139 0.0 1.0 0.00 0.00 0.00 43 1010.0
20260905001546 90 139 0.0 1.0 0.00 0.00 0.00 49 1010.0
20260905000029 90 139 0.0 2.0 0.00 0.00 0.00 54 1009.9